Wind_Speed
52 52 52 53 53 53 54 54 54 53 53 53 52 52 53 53 52 52 51 51 50 49 49 49 49 49 49 48 48 48 48 48 47 47 48 48 48 48
53 53 53 54 55 56 56 55 55 55 54 53 54 54 54 54 54 53 53 52 51 50 50 50 50 50 50 50 50 50 50 50 50 50 49 50 50 50
54 55 56 56 56 57 57 56 56 55 54 53 53 54 54 54 54 53 53 52 52 52 52 53 52 52 52 52 52 52 52 52 52 52 52 52 52 52
55 56 56 56 56 56 56 56 56 56 55 54 53 54 54 54 54 54 53 53 52 52 53 54 53 53 54 54 54 54 54 54 54 54 54 54 54 54
56 57 56 56 56 56 56 56 56 56 56 55 54 55 54 53 54 54 54 54 53 53 54 55 55 55 55 56 56 56 57 56 56 56 56 56 56 56
56 57 57 57 57 56 56 56 56 56 56 55 55 54 53 53 54 54 54 54 54 55 55 55 56 56 56 56 57 57 57 57 57 57 57 57 57 57
55 56 56 57 58 57 57 56 56 56 56 56 55 54 54 53 54 54 55 55 55 55 55 56 56 56 56 56 56 57 58 58 58 57 57 58 58 58
56 56 56 56 56 57 57 57 57 56 55 55 55 54 54 54 55 55 55 56 56 56 56 57 57 57 57 56 56 56 57 57 58 57 57 58 58 58
54 54 54 55 55 56 56 57 57 57 57 57 56 55 55 55 56 56 56 56 56 57 57 57 58 57 57 57 57 57 57 57 57 57 56 57 57 57
54 53 53 53 54 55 55 55 56 57 57 57 57 56 56 56 56 56 56 57 57 57 57 57 57 57 57 57 57 57 58 57 57 57 57 57 58 58
54 53 53 53 54 55 55 55 55 55 55 55 55 55 55 55 55 55 56 57 57 56 57 57 57 56 56 56 56 56 56 57 57 57 57 58 58 59
53 54 53 53 53 54 54 54 54 54 54 54 54 54 53 53 54 53 53 53 54 53 54 54 54 54 54 55 56 56 56 56 57 57 57 57 58 58
53 53 53 53 53 53 53 53 53 53 53 52 52 52 52 52 52 52 51 51 50 50 50 50 50 50 51 51 52 54 55 55 56 56 56 56 56 56
52 52 53 53 52 52 53 53 53 53 52 51 51 50 50 50 50 50 50 50 50 50 49 49 49 49 49 48 49 50 51 52 53 53 54 54 55 55
50 51 52 52 52 53 53 52 52 52 51 51 51 50 50 50 50 50 50 50 50 49 49 49 48 48 47 48 48 49 49 49 50 50 51 53 53 54
49 49 50 50 50 51 51 50 51 51 50 50 50 50 50 50 50 50 50 50 49 49 49 48 47 47 46 47 47 47 48 49 49 49 50 51 51 52
47 47 47 47 48 48 49 49 48 49 49 49 49 49 50 50 50 50 50 50 49 48 48 47 47 47 46 46 46 46 47 47 48 48 49 49 50 50
45 45 45 45 46 47 47 48 48 48 48 48 49 49 49 49 49 49 50 49 48 48 47 47 47 47 46 46 46 46 46 46 47 48 49 49 49 49
44 44 44 44 44 45 46 46 47 47 48 48 48 48 49 49 48 48 48 48 47 47 46 46 46 46 45 45 45 46 46 46 46 46 46 47 47 46
41 41 41 42 42 42 43 44 44 45 46 47 48 48 47 47 47 47 46 46 46 46 46 46 45 44 44 44 43 44 44 44 45 45 45 45 46 46
40 40 41 41 41 41 41 41 42 43 43 44 45 45 45 45 45 45 45 45 45 45 45 44 44 44 43 43 43 43 44 44 45 45 45 45 45 45
39 40 40 41 41 41 41 41 41 41 41 42 42 42 42 43 43 43 43 43 43 43 43 43 43 43 43 43 43 43 43 44 45 45 45 45 44 44
37 37 38 38 38 38 39 39 39 39 39 40 40 40 40 40 40 40 41 41 41 41 42 42 41 42 42 43 43 43 43 44 44 43 43 43 43 43
Wind_Direction
262 262 263 263 264 265 265 265 266 266 266 266 266 266 266 266 265 264 265 264 264 264 263 263 263 263 262 262 262 263 263 264 264 265 265 266 267 267
261 262 263 263 264 265 265 266 266 266 266 265 265 265 266 265 265 264 264 264 264 263 263 263 263 263 263 263 263 263 264 264 264 264 265 265 266 267
262 264 264 265 266 266 266 266 266 266 267 266 266 266 266 265 264 264 263 264 263 263 264 264 264 264 264 263 263 263 264 264 263 263 264 264 265 266
263 264 264 264 265 266 266 266 266 267 267 267 267 266 266 265 264 263 263 263 263 263 264 264 264 265 264 263 263 263 263 264 263 264 264 264 264 265
264 265 265 264 265 265 265 266 266 267 267 267 266 266 266 265 264 264 263 263 263 263 264 264 264 264 264 264 264 264 264 264 264 263 264 264 264 265
265 266 266 265 264 264 264 265 265 266 266 267 266 265 265 264 264 263 263 263 263 263 264 264 265 265 264 265 264 264 264 264 264 264 264 264 264 265
266 266 266 265 265 264 264 264 266 266 266 267 266 265 265 265 264 264 264 264 264 264 265 265 265 266 265 265 265 265 265 265 265 265 265 266 266 265
266 266 266 265 265 265 265 265 266 266 266 266 266 265 265 265 265 265 265 265 265 265 266 266 266 266 266 266 267 266 266 266 266 266 266 266 266 266
265 265 265 265 265 265 266 266 266 266 266 265 266 266 266 266 265 265 265 265 266 267 266 266 267 267 267 267 267 267 266 266 266 266 266 265 265 265
266 265 265 265 266 266 266 266 266 266 266 266 267 267 266 265 265 265 265 266 267 267 267 267 267 268 267 266 266 265 265 265 265 265 265 265 265 265
267 266 265 265 266 266 265 265 265 266 266 266 266 266 266 265 265 266 266 266 267 268 268 268 268 268 267 267 266 266 266 266 265 265 265 265 265 265
266 266 265 265 265 265 266 265 265 265 266 266 266 266 266 266 266 266 267 267 267 267 268 268 268 268 268 267 267 266 266 265 265 265 265 266 266 266
266 266 265 265 266 265 265 265 265 265 265 265 265 265 266 265 265 265 266 266 267 268 268 269 269 269 269 267 266 266 266 266 266 266 266 266 266 266
266 265 265 265 264 264 264 264 264 265 265 264 263 263 264 265 265 266 266 266 267 268 268 269 270 269 269 268 267 267 267 266 266 266 266 267 267 267
267 266 265 265 264 264 264 264 264 264 264 264 263 263 264 265 265 266 266 267 268 268 269 270 270 270 269 268 267 267 266 266 267 267 267 267 267 268
269 268 266 265 264 264 263 264 263 263 263 263 263 263 263 264 265 265 266 266 267 268 268 268 269 269 268 268 267 267 267 267 267 268 268 268 268 268
270 268 267 265 264 264 263 263 263 263 262 262 262 262 263 264 264 265 265 266 267 267 267 267 267 268 268 268 268 268 268 268 268 268 268 269 269 270
270 269 268 266 265 264 264 263 263 262 262 262 263 263 264 264 264 264 264 265 266 267 267 267 268 268 268 268 269 269 269 270 270 269 269 269 269 270
270 269 268 267 266 266 264 264 263 263 262 262 262 263 264 264 264 264 264 264 265 266 267 267 267 267 267 268 269 269 270 270 270 270 270 270 269 270
270 269 268 268 268 267 266 265 264 264 263 263 263 263 264 264 264 263 263 264 265 265 265 266 267 267 267 268 268 268 269 270 271 271 270 270 270 271
270 269 269 269 268 268 267 266 265 265 264 263 263 263 263 264 263 262 263 264 264 264 265 266 266 267 267 267 268 269 270 271 272 271 271 271 272 273
271 270 269 269 268 268 267 266 266 266 265 264 264 264 264 264 263 263 263 263 263 264 264 265 265 266 267 268 269 269 270 272 273 273 273 274 274 273
273 271 270 269 268 268 268 267 266 265 265 265 264 264 264 264 263 263 264 264 264 264 265 265 265 266 268 269 270 270 271 272 272 273 274 275 275 275
Height
5654 5655 5656 5657 5658 5659 5659 5660 5661 5663 5665 5665 5664 5664 5663 5664 5665 5667 5669 5670 5672 5673 5675 5676 5678 5679 5681 5683 5685 5687 5689 5691 5692 5694 5695 5696 5697 5698
5639 5641 5641 5642 5643 5644 5644 5645 5645 5647 5649 5650 5649 5649 5649 5649 5651 5652 5654 5656 5658 5660 5661 5663 5664 5666 5667 5669 5671 5673 5675 5677 5679 5680 5681 5683 5684 5685
5625 5625 5626 5627 5628 5628 5629 5630 5630 5631 5632 5634 5634 5633 5634 5635 5636 5638 5640 5642 5644 5645 5647 5648 5650 5651 5653 5655 5657 5659 5661 5662 5664 5666 5667 5669 5670 5671
5610 5610 5611 5612 5613 5613 5614 5614 5615 5615 5617 5618 5619 5618 5619 5620 5621 5623 5625 5627 5629 5631 5632 5633 5635 5636 5638 5639 5641 5644 5645 5647 5649 5651 5652 5654 5655 5656
5595 5595 5596 5596 5597 5598 5598 5599 5600 5600 5601 5602 5603 5603 5604 5604 5606 5608 5610 5612 5614 5616 5617 5618 5620 5621 5622 5624 5626 5628 5630 5631 5633 5634 5636 5637 5639 5640
5580 5580 5580 5581 5582 5582 5583 5584 5584 5585 5585 5586 5588 5588 5589 5590 5592 5594 5596 5597 5599 5600 5602 5603 5604 5605 5607 5608 5610 5611 5613 5614 5616 5617 5619 5621 5622 5624
5564 5565 5565 5565 5566 5566 5567 5568 5569 5569 5570 5571 5572 5573 5575 5576 5577 5579 5580 5582 5583 5584 5586 5588 5589 5590 5591 5592 5593 5594 5595 5597 5599 5601 5602 5604 5606 5607
5549 5549 5549 5550 5550 5551 5552 5552 5553 5554 5555 5556 5557 5558 5560 5561 5562 5563 5564 5566 5569 5571 5571 5572 5572 5573 5574 5576 5576 5577 5579 5580 5582 5584 5585 5587 5588 5589
5534 5534 5534 5535 5535 5536 5536 5537 5538 5538 5539 5541 5542 5543 5545 5546 5547 5548 5549 5550 5553 5554 5554 5556 5556 5557 5558 5558 5559 5561 5562 5563 5565 5566 5568 5569 5571 5572
5518 5519 5519 5520 5520 5520 5521 5521 5522 5523 5524 5525 5527 5528 5529 5529 5530 5532 5533 5534 5536 5537 5537 5539 5540 5541 5541 5542 5542 5543 5545 5546 5548 5549 5550 5551 5553 5554
5503 5503 5503 5504 5505 5505 5506 5507 5507 5508 5508 5509 5510 5511 5512 5513 5514 5516 5517 5518 5521 5522 5521 5523 5524 5524 5525 5525 5526 5526 5528 5529 5530 5532 5533 5534 5535 5537
5487 5488 5488 5489 5489 5489 5489 5490 5492 5493 5493 5494 5495 5496 5497 5498 5499 5500 5501 5502 5504 5506 5506 5506 5507 5507 5509 5510 5509 5510 5511 5512 5513 5514 5515 5516 5518 5519
5471 5472 5472 5472 5472 5472 5473 5474 5476 5477 5478 5479 5480 5481 5482 5483 5484 5485 5486 5488 5489 5490 5491 5491 5491 5491 5492 5494 5494 5494 5494 5495 5496 5497 5498 5499 5500 5501
5455 5455 5456 5456 5456 5457 5457 5458 5460 5461 5462 5463 5465 5466 5467 5469 5470 5470 5471 5473 5474 5475 5476 5476 5476 5477 5477 5478 5479 5479 5479 5479 5479 5480 5481 5482 5483 5484
5438 5438 5439 5439 5440 5441 5442 5443 5444 5445 5446 5448 5450 5452 5453 5454 5455 5456 5457 5458 5459 5460 5461 5461 5461 5462 5462 5463 5464 5465 5465 5465 5465 5465 5465 5466 5467 5468
5422 5423 5423 5423 5424 5425 5426 5427 5428 5430 5431 5433 5435 5437 5438 5439 5440 5441 5442 5443 5444 5446 5446 5446 5446 5447 5448 5449 5449 5450 5450 5451 5451 5450 5451 5451 5451 5452
5407 5408 5408 5408 5409 5410 5411 5412 5414 5415 5416 5418 5420 5421 5423 5424 5425 5426 5428 5429 5430 5431 5431 5432 5432 5433 5434 5435 5435 5435 5435 5435 5436 5436 5436 5437 5436 5437
5393 5393 5394 5394 5395 5395 5396 5398 5399 5400 5402 5403 5405 5406 5408 5409 5410 5411 5413 5414 5415 5416 5417 5417 5418 5419 5420 5421 5421 5421 5421 5421 5421 5421 5421 5422 5422 5422
5379 5379 5380 5380 5381 5381 5382 5383 5385 5386 5387 5388 5390 5391 5392 5394 5395 5396 5398 5399 5401 5402 5403 5403 5404 5405 5406 5407 5407 5407 5407 5407 5406 5406 5406 5406 5407 5408
5366 5366 5366 5367 5367 5368 5368 5369 5370 5371 5372 5373 5375 5376 5377 5379 5380 5382 5383 5385 5386 5387 5388 5389 5390 5391 5392 5393 5393 5394 5393 5392 5392 5392 5392 5392 5393 5393
5353 5353 5353 5354 5354 5355 5355 5356 5357 5358 5359 5359 5361 5362 5363 5364 5366 5367 5369 5370 5372 5373 5374 5375 5376 5377 5377 5378 5380 5380 5380 5379 5378 5378 5379 5379 5379 5380
5341 5341 5341 5341 5341 5342 5342 5343 5344 5344 5345 5346 5347 5348 5349 5351 5352 5354 5355 5357 5358 5359 5361 5361 5362 5363 5364 5365 5366 5366 5366 5366 5365 5364 5364 5364 5364 5366
5329 5329 5329 5329 5329 5329 5330 5330 5331 5332 5333 5333 5334 5335 5336 5338 5339 5341 5342 5344 5345 5346 5347 5348 5349 5350 5351 5351 5352 5352 5353 5352 5352 5352 5352 5350 5350 5350